This is the latest recevied weather packets stored in our database for station/object VK7TM-1. If no packets are shown the sender has not sent any weather packets the latest 1 day(s).
| Time | Temp. | Humidity | Pressure | Rain* | Wind** | Luminosity | Snow |
|---|---|---|---|---|---|---|---|
| 1778044381 | 13.89° C | 81% | 1009.8 hPa | 0 mm | - | 121 W/m² | - |
| 1778044161 | 13.89° C | 82% | 1009.8 hPa | 0 mm | - | 65 W/m² | - |
| 1778043801 | 13.89° C | 82% | 1010 hPa | 0 mm | - | 151 W/m² | - |
| 1778043511 | 13.89° C | 80% | 1010 hPa | 0 mm | - | 51 W/m² | - |
| 1778043221 | 14.44° C | 79% | 1009.9 hPa | 0 mm | - | 61 W/m² | - |
| 1778042931 | 14.44° C | 77% | 1010.2 hPa | 0 mm | - | 160 W/m² | - |
| 1778042641 | 15° C | 76% | 1009.9 hPa | 0 mm | - | 118 W/m² | - |
| 1778042351 | 15° C | 77% | 1010.2 hPa | 0 mm | - | 320 W/m² | - |
| 1778042061 | 14.44° C | 80% | 1010.2 hPa | 0 mm | - | 354 W/m² | - |
| 1778041771 | 13.89° C | 80% | 1010.5 hPa | 0 mm | - | 381 W/m² | - |
| 1778041481 | 13.33° C | 81% | 1010.6 hPa | 0 mm | - | 360 W/m² | - |
| 1778041191 | 13.89° C | 81% | 1010.8 hPa | 0 mm | - | 156 W/m² | - |
| 1778040901 | 13.89° C | 81% | 1010.6 hPa | 0 mm | - | 67 W/m² | - |
| 1778040611 | 13.89° C | 80% | 1010.7 hPa | 0 mm | - | 48 W/m² | - |
| 1778040321 | 14.44° C | 79% | 1010.9 hPa | 0 mm | - | 50 W/m² | - |
| 1778040031 | 13.89° C | 79% | 1010.9 hPa | 0 mm | - | 122 W/m² | - |
| 1778039741 | 15° C | 79% | 1011 hPa | 0 mm | - | 77 W/m² | - |
| 1778039451 | 14.44° C | 80% | 1011 hPa | 0 mm | - | 169 W/m² | - |
| 1778039161 | 15° C | 79% | 1011 hPa | 0 mm | - | 140 W/m² | - |
| 1778038871 | 15° C | 78% | 1011.3 hPa | 0 mm | - | 459 W/m² | - |
| 1778038581 | 15° C | 82% | 1011.1 hPa | 0 mm | - | 445 W/m² | - |
| 1778038291 | 14.44° C | 83% | 1011.6 hPa | 0 mm | - | 273 W/m² | - |
| 1778038001 | 14.44° C | 84% | 1011.5 hPa | 0 mm | - | 400 W/m² | - |
| 1778037711 | 13.89° C | 86% | 1011.5 hPa | 0 mm | - | 588 W/m² | - |
| 1778037421 | 14.44° C | 82% | 1011.4 hPa | 0 mm | - | 196 W/m² | - |
* Rain latest hour (hover to see other rain measurements)
** Current wind speed in m/s (hover to see current wind gust speed)